Location: Kalberh�ni
(46.4610°N, 7.2453°E)
Time: 09:17:20
(UTC+00:00)

Cosmos 1455 - Pass Details

Date: 01 November 2021
Orbit: 496 x 520 km, 82.5° (Epoch: 27 November)

Event Time Altitude Azimuth Distance (km) Brightness Sun altitude
Rises 18:38:44 0° 225° (SW) 2,608 6.3 -25.0°
Reaches altitude 10° 18:41:21 10° 244° (WSW) 1,723 5.6 -25.5°
Maximum altitude 18:44:03 19° 290° (WNW) 1,277 5.0 -25.9°
Drops below altitude 10° 18:46:45 10° 336° (NNW) 1,723 5.2 -26.4°
Sets 18:49:23 0° 355° (N) 2,609 5.9 -26.8°
